Regional Weather Roundup
Issued by NWS

Home | Current Version | Previous Version | Text Only | Print | Product List | Glossary Off
Versions: 1 2 3 4 5 6 7 8 9 10 11 12 13 14 15 16 17 18 19 20 21 22 23 24 25 26 27 28 29 30 31 32 33 34 35 36 37 38 39 40 41 42 43 44 45 46 47 48 49 50

000
ASUS45 KABQ 200510
RWRNM
NEW MEXICO REGIONAL WEATHER ROUNDUP
NATIONAL WEATHER SERVICE ALBUQUERQUE NM
1100 PM MDT THU OCT 19 2017

NOTE: "FAIR" MEANS FEW OR NO CLOUDS BELOW 12,000 FEET AGL WITH NO
       SIGNIFICANT WEATHER OR OBSTRUCTIONS TO VISION.

      THIS PRODUCT IS RELEASED AS TWO VERSIONS.  ONE VERSION NEAR
      THE TOP OF THE HOUR CONTAINING PRELIMINARY DATA FROM ALBUQUERQUE
      AND OTHER STATIONS.  A FINAL VERSION WITH ADDITIONAL DATA IS
      ISSUED ABOUT 10 MINUTES AFTER THE HOUR.

NMZ501-503-504-510>518-200600-
NORTHWEST PLATEAU/NORTHCENTRAL MOUNTAINS

CITY           SKY/WX    TMP DP  RH WIND       PRES   REMARKS
FARMINGTON     MOCLDY    55  36  48 E5        30.02S
LOS ALAMOS     FAIR      54  37  54 S7        30.13F
SANTA FE       FAIR      54  44  69 SW3       30.11S
TAOS           FAIR      53  33  46 S3        30.15S
ANGEL FIRE     FAIR      37  31  78 CALM      30.18S

$$
NMZ402-403-502-505>509-200600-
WESTCENTRAL MOUNTAINS/SOUTHWEST MOUNTAINS

CITY           SKY/WX    TMP DP  RH WIND       PRES   REMARKS
GALLUP         FAIR      53  41  63 S15       30.10S
GRANTS         FAIR      46  44  91 S6        30.15F
SILVER CITY    CLOUDY    58  44  58 CALM      30.10R

$$
NMZ407-409-411-412-200600-
SOUTHERN DESERTS

CITY           SKY/WX    TMP DP  RH WIND       PRES   REMARKS
DEMING         FAIR      60  51  72 NE12      30.05S
LAS CRUCES     LGT RAIN  59  53  81 NW15G22   30.05S
HOLLOMAN AFB   LGT RAIN  59  52  77 NE12        N/A
ALAMOGORDO     LGT RAIN  59  50  72 E18       30.11F
T OR C         FAIR      56  54  93 W6        30.10R

$$
NMZ519>523-200600-
CENTRAL VALLEYS/CENTRAL HIGHLANDS

CITY           SKY/WX    TMP DP  RH WIND       PRES   REMARKS
ALBUQUERQUE    CLOUDY    58  50  75 VRB3      30.08F
MORIARTY ARPT  MOCLDY    56  45  65 SE7       30.12F
CLINES CORNERS MOCLDY    49  43  80 W7        30.15F
BELEN          MOCLDY    54  51  92 S7        30.10R
SOCORRO        FAIR      56  49  78 SW5       30.10S

$$
NMZ524>526-539-540-200600-
SOUTHCENTRAL MOUNTAINS

CITY           SKY/WX    TMP DP  RH WIND       PRES   REMARKS
RUIDOSO        LGT RAIN  50  45  81 W15G24    30.23F

$$
NMZ527>531-200600-
NORTHEAST HIGHLANDS/NORTHEAST PLAINS

CITY           SKY/WX    TMP DP  RH WIND       PRES   REMARKS
LAS VEGAS      FAIR      50  42  74 S15       30.09F
RATON          FAIR      50  39  66 CALM      30.06S
CLAYTON        FAIR      55  46  71 S12       30.03S

$$
NMZ532>537-200600-
EASTCENTRAL PLAINS

CITY           SKY/WX    TMP DP  RH WIND       PRES   REMARKS
SANTA ROSA     FAIR      60  49  66 S14       30.04F
TUCUMCARI      LGT RAIN  60  55  83 SW17      30.01F
CANNON AFB     MOCLDY    54  54 100 SW3       30.10F
CLOVIS AIRPORT FAIR      55  54  96 SW3       30.09S

$$
NMZ028-029-538-200600-
SOUTHEAST PLAINS

CITY           SKY/WX    TMP DP  RH WIND       PRES   REMARKS
ROSWELL        LGT RAIN  63  53  70 SW10      30.09R
ARTESIA        DRIZZLE   61  59  94 SW13      30.13R
CARLSBAD       MOCLDY    60  60 100 W15       30.11R THUNDER
HOBBS          TSTM      59  54  82 W12G25    30.12R


$$




USA.gov is the U.S. government's official web portal to all federal, state and local government web resources and services.